Content
SEND FEEDBACK

Daily
Averages
Monthly
Summary
Philippines

QUEZON CITY, PHILIPPINES


Home > Asia > Philippines
Elevation: 46 meters     Latitude: 14 39N     Longitude: 121 03E

WEATHER
 
SELECT A DAY
Number of Records: 172,513;   Date Range: 7/1/96 - 7/29/14
 
SHARE

PRINT THIS DATA

[ ← Previous Day ]
WEATHER ALMANAC - 29 APRIL, 2013
[ Next Day → ]
[ °F ]   °C
Weather ElementAverageHighLow
Temperature31.5 °C36.1 °C (2:00 pm)27 °C (5:00 am)
Dewpoint21.9 °C23.9 °C (8:00 pm)19 °C (2:00 pm)
Humidity55.5 %79 % (5:00 am)28 % (2:00 pm)
Barometer1010.5 hPa1012.5 hPa (11:00 pm)1008.1 hPa (2:00 pm)
Wind Speed10.9 km/h16.7 km/h (6:00 pm)
Weather ElementAverage
Visibility9.8 km
Wind DirectionE (95.2 °)

Weather ElementTotal
Precipitation---
Cooling Degree Days13.2 (Base 18.3)
Growing Degree Days21.6 (Base 10)
Averaged from 31 records on 29 April, 2013
WEATHER CONDITIONS BREAKOUT
WIND DIRECTION BREAKOUT
WEATHER BY HOUR - 29 APRIL, 2013
[ °F ]   °C
Local TimeTemperatureDewpointHumidityBarometerVisibilityWind DirectionWind SpeedGust SpeedPrecipitationEventsConditions
1:00 AM29 °C22 °C66 %1011.2 hPa10 kmESE (110°)9.3 km/hPartly Cloudy
2:00 AM28.3 °C21.1 °C56 %1010.5 hPa9.7 kmEast (100°)7.2 km/hHaze
2:00 AM29 °C21 °C62 %1010.2 hPa10 kmEast (100°)9.3 km/hPartly Cloudy
3:00 AM28 °C21 °C66 %1010.2 hPa10 kmEast (90°)5.6 km/hPartly Cloudy
4:00 AM28 °C21 °C66 %1010.2 hPa10 kmENE (60°)7.4 km/hPartly Cloudy
5:00 AM27.2 °C22.8 °C71 %1010.5 hPa9.7 kmEast (80°)7.2 km/hHaze
5:00 AM27 °C23 °C79 %1010.2 hPa10 kmEast (80°)5.6 km/hPartly Cloudy
6:00 AM27 °C23 °C79 %1011.2 hPa10 kmEast (90°)5.6 km/hPartly Cloudy
7:00 AM29 °C22 °C66 %1011.2 hPa10 kmEast (90°)9.3 km/hPartly Cloudy
8:00 AM30.6 °C21.1 °C47 %1012.2 hPa9.7 kmEast (80°)10.8 km/hHaze
8:00 AM31 °C21 °C55 %1012.2 hPa10 kmEast (80°)11.1 km/hPartly Cloudy
9:00 AM33 °C20 °C46 %1012.2 hPa10 kmVariable9.3 km/hPartly Cloudy
10:00 AM33 °C21 °C49 %1012.2 hPa10 kmVariable11.1 km/hPartly Cloudy
11:00 AM33.3 °C22.2 °C43 %1011.9 hPa9.7 kmESE (120°)10.8 km/hHaze
11:00 AM33 °C22 °C52 %1011.2 hPa10 kmVariable9.3 km/hPartly Cloudy
12:00 PM34 °C22 °C49 %1010.2 hPa10 kmEast (90°)14.8 km/hPartly Cloudy
1:00 PM35 °C22 °C47 %1010.2 hPa10 kmESE (120°)9.3 km/hPartly Cloudy
2:00 PM36.1 °C19.4 °C28 %1009.1 hPa9.7 kmESE (120°)10.8 km/hHaze
2:00 PM36 °C19 °C37 %1008.1 hPa10 kmVariable13 km/hPartly Cloudy
3:00 PM36 °C21 °C41 %1008.1 hPa10 kmSE (130°)11.1 km/hPartly Cloudy
4:00 PM36 °C21 °C41 %1008.1 hPa10 kmSE (130°)13 km/hPartly Cloudy
5:00 PM34.4 °C22.8 °C41 %1008.5 hPa9.7 kmSE (130°)14.3 km/hPartly Cloudy
5:00 PM35 °C23 °C49 %1008.1 hPa10 kmSE (130°)14.8 km/hPartly Cloudy
6:00 PM33 °C22 °C52 %1009.1 hPa10 kmSE (130°)16.7 km/hPartly Cloudy
7:00 PM32 °C23 °C59 %1010.2 hPa10 kmESE (120°)14.8 km/hPartly Cloudy
8:00 PM31.1 °C23.9 °C57 %1010.5 hPa9.7 kmESE (120°)14.3 km/hHaze
8:00 PM31 °C23 °C62 %1010.2 hPa10 kmESE (120°)14.8 km/hPartly Cloudy
9:00 PM31 °C23 °C62 %1011.2 hPa10 kmSE (140°)11.1 km/hPartly Cloudy
10:00 PM30 °C23 °C66 %1011.2 hPa10 kmSE (130°)14.8 km/hPartly Cloudy
11:00 PM29.4 °C23.3 °C62 %1012.5 hPa9.7 kmSE (130°)10.8 km/hHaze
11:00 PM30 °C23 °C66 %1011.2 hPa10 kmSE (130°)11.1 km/hScattered Clouds
Hourly data recorded from RPLL, located 0 kilometers away from Quezon City, Philippines







STORIES FROM OUR PARTNERS